一网星座-0010星 (ONEWEB-0010 )

导读

ONEWEB-0010,中文名一网星座-0010星,别名ChusigSat,是英国一网卫星公司运营的OneWeb全球卫星互联网星座的首批原型星之一。该卫星由欧洲空客防务与航天公司制造,于2019年2月27日在圭亚那航天中心发射,国际标识2019-010B。 卫星重约147公斤,运行在近地点1196公里,远地点1199公里的近极LEO轨道,倾角87.9°,搭载Ku频段有效载荷,设计寿命7年,目前仍在轨运行,可提供高速互联网接入服务。

基本信息
目录编号:
44058
目录名称:
ONEWEB-0010
国际标识:
2019-010B
轨道中心:
EARTH
卫星名称:
一网星座-0010星
卫星全名:
一网星座-0010星 (ONEWEB-0010 )
卫星状态:
在轨 (已飞行2753 天)
发射日期:
2019-02-27 UTC
国别 :
英国 (GB)
星等 :
--
该卫星已列入 空间交会检测服务 Space Conjunction Data Service (SCDS) ,当前飞行风险评估等级: 无高风险
轨道信息
数据来源 国际轨道数据 AOE轨道数据
星历时间 2026-09-10T17:28:56+0800
1天前
查看轨道信息
2026-09-06T07:00:00+0800
5天前
查看轨道信息
半长轴 7575.899km 7575.901km
偏心率 0.0002029 0.0002351
轨道倾角 87.914° 87.912°
近地点辐角 71.239° 71.297°
升交点赤经 211.861° 212.741°
平近点角 288.896° 151.782°
近地点 1196.224km 1195.982km
远地点 1199.3km 1199.546km
周期 109.373分钟 109.373分钟
每日圈数 13.16593 13.165925
详细信息
平衡模式:
三轴稳定
覆盖范围:
全球
运营商:
一网卫星公司
运营商所在国:
英国
制造商(研发单位):
空客防务与航天公司
制造商所在国:
法国大都会
使用方式:
暂无
卫星简介
OneWeb卫星网络由648颗重约125公斤的微型卫星组成,运行在1200公里的轨道上。 每颗卫星都能够提供至少每秒8千兆位的吞吐量,以使用其高吞吐量的Ku频段有效载荷为家庭和移动平台提供互联网接入。该卫星仍在工作。
2D轨道图
3D轨道图
轨道高度分析图
轨道倾角分析图
轨道综合分析图
查看轨道综合分析图
与全量物体交会距离演化趋势
与全量物体交会风险概率演化趋势